owner,sensor,date,latitude,longitude,vertical_datum,wind_speed,wind_to_direction,wind_speed_of_gust,qcFlag 
DISL,ioos:station:DISL:MBLA:1,2019-01-01T00:00:00Z,30.4367,-88.0117,14.2,8.7,132.0,99.0,'11111222,11111222,11144222' 
DISL,ioos:station:DISL:MBLA:1,2019-01-01T00:30:00Z,30.4367,-88.0117,14.2,7.7,133.0,99.0,'11111222,11111222,11144222' 
DISL,ioos:station:DISL:MBLA:1,2019-01-01T01:00:00Z,30.4367,-88.0117,14.2,7.3,134.0,99.0,'11111222,11111222,11144222' 
DISL,ioos:station:DISL:MBLA:1,2019-01-01T01:30:00Z,30.4367,-88.0117,14.2,8.5,135.0,99.0,'11111222,11111222,11144222' 
DISL,ioos:station:DISL:MBLA:1,2019-01-01T02:00:00Z,30.4367,-88.0117,14.2,9.0,142.0,99.0,'11111222,11111222,11144222' 
DISL,ioos:station:DISL:MBLA:1,2019-01-01T02:30:00Z,30.4367,-88.0117,14.2,6.5,136.0,99.0,'11111222,11111222,11144222' 
DISL,ioos:station:DISL:MBLA:1,2019-01-01T03:00:00Z,30.4367,-88.0117,14.2,5.9,134.0,99.0,'11111222,11111222,11144222' 
DISL,ioos:station:DISL:MBLA:1,2019-01-01T03:30:00Z,30.4367,-88.0117,14.2,7.1,192.0,99.0,'11111222,11111222,11144222' 
DISL,ioos:station:DISL:MBLA:1,2019-01-01T04:00:00Z,30.4367,-88.0117,14.2,5.4,192.0,99.0,'11111222,11111222,11144222' 
DISL,ioos:station:DISL:MBLA:1,2019-01-01T04:30:00Z,30.4367,-88.0117,14.2,4.3,193.0,99.0,'11111222,11111222,11144222' 
DISL,ioos:station:DISL:MBLA:1,2019-01-01T05:00:00Z,30.4367,-88.0117,14.2,4.7,181.0,99.0,'11111222,11111222,11144222' 
DISL,ioos:station:DISL:MBLA:1,2019-01-01T06:30:00Z,30.4367,-88.0117,14.2,2.8,155.0,99.0,'11111222,11111222,11144222' 
DISL,ioos:station:DISL:MBLA:1,2019-01-01T06:50:00Z,30.4367,-88.0117,14.2,2.21,149.9,-9999.0,'1111122,1111122,1111122' 
DISL,ioos:station:DISL:MBLA:1,2019-01-01T07:00:00Z,30.4367,-88.0117,14.2,2.4,153.0,99.0,'11111222,11111222,11144222' 
DISL,ioos:station:DISL:MBLA:1,2019-01-01T07:30:00Z,30.4367,-88.0117,14.2,1.9,173.0,99.0,'11111222,11111222,11144222' 
DISL,ioos:station:DISL:MBLA:1,2019-01-01T07:50:00Z,30.4367,-88.0117,14.2,2.51,221.1,-9999.0,'1111122,1111122,1111122' 
DISL,ioos:station:DISL:MBLA:1,2019-01-01T08:00:00Z,30.4367,-88.0117,14.2,2.2,196.0,99.0,'11111222,11111222,11144222' 
DISL,ioos:station:DISL:MBLA:1,2019-01-01T08:30:00Z,30.4367,-88.0117,14.2,1.9,170.0,99.0,'11111222,11111222,11144222' 
DISL,ioos:station:DISL:MBLA:1,2019-01-01T08:50:00Z,30.4367,-88.0117,14.2,2.31,179.2,-9999.0,'1111122,1111122,1111122' 
DISL,ioos:station:DISL:MBLA:1,2019-01-01T09:00:00Z,30.4367,-88.0117,14.2,2.8,187.0,99.0,'11111222,11111222,11144222' 
DISL,ioos:station:DISL:MBLA:1,2019-01-01T09:30:00Z,30.4367,-88.0117,14.2,3.1,170.0,99.0,'11111222,11111222,11144222' 
DISL,ioos:station:DISL:MBLA:1,2019-01-01T09:50:00Z,30.4367,-88.0117,14.2,2.37,132.8,-9999.0,'1111122,1111122,1111122' 
DISL,ioos:station:DISL:MBLA:1,2019-01-01T10:00:00Z,30.4367,-88.0117,14.2,2.9,155.0,99.0,'11111222,11111222,11144222' 
DISL,ioos:station:DISL:MBLA:1,2019-01-01T10:30:00Z,30.4367,-88.0117,14.2,2.6,144.0,99.0,'11111222,11111222,11144222' 
DISL,ioos:station:DISL:MBLA:1,2019-01-01T10:50:00Z,30.4367,-88.0117,14.2,1.7,142.1,-9999.0,'1111122,1111122,1111122' 
DISL,ioos:station:DISL:MBLA:1,2019-01-01T11:00:00Z,30.4367,-88.0117,14.2,2.4,127.0,99.0,'11111222,11111222,11144222' 
DISL,ioos:station:DISL:MBLA:1,2019-01-01T11:30:00Z,30.4367,-88.0117,14.2,4.4,157.0,99.0,'11111222,11111222,11144222' 
DISL,ioos:station:DISL:MBLA:1,2019-01-01T11:50:00Z,30.4367,-88.0117,14.2,5.44,153.8,-9999.0,'1111122,1111122,1111122' 
DISL,ioos:station:DISL:MBLA:1,2019-01-01T12:00:00Z,30.4367,-88.0117,14.2,5.6,162.0,99.0,'11111222,11111222,11144222' 
DISL,ioos:station:DISL:MBLA:1,2019-01-01T12:30:00Z,30.4367,-88.0117,14.2,5.4,140.0,99.0,'11111222,11111222,11144222' 
DISL,ioos:station:DISL:MBLA:1,2019-01-01T12:50:00Z,30.4367,-88.0117,14.2,5.67,143.2,-9999.0,'1111122,1111122,1111122' 
DISL,ioos:station:DISL:MBLA:1,2019-01-01T13:00:00Z,30.4367,-88.0117,14.2,5.5,145.0,99.0,'11111222,11111222,11144222' 
DISL,ioos:station:DISL:MBLA:1,2019-01-01T13:30:00Z,30.4367,-88.0117,14.2,5.6,147.0,99.0,'11111222,11111222,11144222' 
DISL,ioos:station:DISL:MBLA:1,2019-01-01T13:50:00Z,30.4367,-88.0117,14.2,5.97,179.7,-9999.0,'1111122,1111122,1111122' 
DISL,ioos:station:DISL:MBLA:1,2019-01-01T14:00:00Z,30.4367,-88.0117,14.2,5.7,198.0,99.0,'11111222,11111222,11144222' 
DISL,ioos:station:DISL:MBLA:1,2019-01-01T14:30:00Z,30.4367,-88.0117,14.2,4.3,208.0,99.0,'11111222,11111222,11144222' 
DISL,ioos:station:DISL:MBLA:1,2019-01-01T14:50:00Z,30.4367,-88.0117,14.2,2.77,211.9,-9999.0,'1111122,1111122,1111122' 
DISL,ioos:station:DISL:MBLA:1,2019-01-01T15:00:00Z,30.4367,-88.0117,14.2,2.3,207.0,99.0,'11111222,11111222,11144222' 
DISL,ioos:station:DISL:MBLA:1,2019-01-01T15:30:00Z,30.4367,-88.0117,14.2,1.3,197.0,99.0,'11111222,11111222,11144222' 
DISL,ioos:station:DISL:MBLA:1,2019-01-01T15:50:00Z,30.4367,-88.0117,14.2,1.09,283.2,-9999.0,'1111122,1111122,1111122' 
DISL,ioos:station:DISL:MBLA:1,2019-01-01T16:00:00Z,30.4367,-88.0117,14.2,3.3,332.0,99.0,'11111222,11111222,11144222' 
DISL,ioos:station:DISL:MBLA:1,2019-01-01T16:30:00Z,30.4367,-88.0117,14.2,3.3,339.0,99.0,'11111222,11111222,11144222' 
DISL,ioos:station:DISL:MBLA:1,2019-01-01T16:50:00Z,30.4367,-88.0117,14.2,3.58,337.1,-9999.0,'1111122,1111122,1111122' 
DISL,ioos:station:DISL:MBLA:1,2019-01-01T17:00:00Z,30.4367,-88.0117,14.2,2.8,356.0,99.0,'11111222,11111222,11144222' 
DISL,ioos:station:DISL:MBLA:1,2019-01-01T17:30:00Z,30.4367,-88.0117,14.2,3.5,321.0,99.0,'11111222,11111222,11144222' 
DISL,ioos:station:DISL:MBLA:1,2019-01-01T17:50:00Z,30.4367,-88.0117,14.2,5.59,325.2,-9999.0,'1111122,1111122,1111122' 
DISL,ioos:station:DISL:MBLA:1,2019-01-01T18:00:00Z,30.4367,-88.0117,14.2,5.1,325.0,99.0,'11111222,11111222,11144222' 
DISL,ioos:station:DISL:MBLA:1,2019-01-01T18:30:00Z,30.4367,-88.0117,14.2,4.8,338.0,99.0,'11111222,11111222,11144222' 
DISL,ioos:station:DISL:MBLA:1,2019-01-01T18:50:00Z,30.4367,-88.0117,14.2,4.98,356.9,-9999.0,'1111122,1111122,1111122' 
DISL,ioos:station:DISL:MBLA:1,2019-01-01T19:00:00Z,30.4367,-88.0117,14.2,4.5,358.0,99.0,'11111222,11111222,11144222' 
DISL,ioos:station:DISL:MBLA:1,2019-01-01T19:30:00Z,30.4367,-88.0117,14.2,2.8,14.0,99.0,'11111222,11111222,11144222' 
DISL,ioos:station:DISL:MBLA:1,2019-01-01T19:50:00Z,30.4367,-88.0117,14.2,1.96,328.2,-9999.0,'1111122,1111122,1111122' 
DISL,ioos:station:DISL:MBLA:1,2019-01-01T20:00:00Z,30.4367,-88.0117,14.2,2.5,331.0,99.0,'11111222,11111222,11144222' 
DISL,ioos:station:DISL:MBLA:1,2019-01-01T20:30:00Z,30.4367,-88.0117,14.2,2.7,358.0,99.0,'11111222,11111222,11144222' 
DISL,ioos:station:DISL:MBLA:1,2019-01-01T20:50:00Z,30.4367,-88.0117,14.2,2.3,6.572,-9999.0,'1111122,1111122,1111122' 
DISL,ioos:station:DISL:MBLA:1,2019-01-01T21:00:00Z,30.4367,-88.0117,14.2,1.8,15.0,99.0,'11111222,11111222,11144222' 
DISL,ioos:station:DISL:MBLA:1,2019-01-01T21:30:00Z,30.4367,-88.0117,14.2,1.3,12.0,99.0,'11111222,11111222,11144222' 
DISL,ioos:station:DISL:MBLA:1,2019-01-01T21:50:00Z,30.4367,-88.0117,14.2,0.88,44.43,-9999.0,'1111122,1111122,1111122' 
DISL,ioos:station:DISL:MBLA:1,2019-01-01T22:00:00Z,30.4367,-88.0117,14.2,1.3,354.0,99.0,'11111222,11111222,11144222' 
DISL,ioos:station:DISL:MBLA:1,2019-01-01T22:30:00Z,30.4367,-88.0117,14.2,1.8,28.0,99.0,'11111222,11111222,11144222' 
DISL,ioos:station:DISL:MBLA:1,2019-01-01T22:50:00Z,30.4367,-88.0117,14.2,2.18,21.63,-9999.0,'1111122,1111122,1111122' 
DISL,ioos:station:DISL:MBLA:1,2019-01-01T23:00:00Z,30.4367,-88.0117,14.2,1.8,56.0,99.0,'11111222,11111222,11144222' 
DISL,ioos:station:DISL:MBLA:1,2019-01-01T23:30:00Z,30.4367,-88.0117,14.2,3.4,86.0,99.0,'11111222,11111222,11144222' 
DISL,ioos:station:DISL:MBLA:1,2019-01-01T23:50:00Z,30.4367,-88.0117,14.2,1.54,315.4,-9999.0,'1111122,1111122,1111122' 
DISL,ioos:station:DISL:MBLA:1,2019-01-02T00:00:00Z,30.4367,-88.0117,14.2,5.1,327.0,99.0,'11111222,11111222,11144222' 
DISL,ioos:station:DISL:MBLA:1,2019-01-02T00:30:00Z,30.4367,-88.0117,14.2,5.7,334.0,99.0,'11111222,11111222,11144222' 
DISL,ioos:station:DISL:MBLA:1,2019-01-02T00:50:00Z,30.4367,-88.0117,14.2,6.57,333.0,-9999.0,'1111122,1111122,1111122' 
DISL,ioos:station:DISL:MBLA:1,2019-01-02T01:00:00Z,30.4367,-88.0117,14.2,6.7,335.0,99.0,'11111222,11111222,11144222' 
DISL,ioos:station:DISL:MBLA:1,2019-01-02T01:30:00Z,30.4367,-88.0117,14.2,6.1,328.0,99.0,'11111222,11111222,11144222' 
DISL,ioos:station:DISL:MBLA:1,2019-01-02T01:50:00Z,30.4367,-88.0117,14.2,6.85,326.5,-9999.0,'1111122,1111122,1111122' 
DISL,ioos:station:DISL:MBLA:1,2019-01-02T02:00:00Z,30.4367,-88.0117,14.2,7.8,327.0,99.0,'11111222,11111222,11144222' 
DISL,ioos:station:DISL:MBLA:1,2019-01-02T02:30:00Z,30.4367,-88.0117,14.2,7.2,323.0,99.0,'11111222,11111222,11144222' 
DISL,ioos:station:DISL:MBLA:1,2019-01-02T02:50:00Z,30.4367,-88.0117,14.2,7.17,335.5,-9999.0,'1111122,1111122,1111122' 
DISL,ioos:station:DISL:MBLA:1,2019-01-02T03:00:00Z,30.4367,-88.0117,14.2,6.9,334.0,99.0,'11111222,11111222,11144222' 
DISL,ioos:station:DISL:MBLA:1,2019-01-02T03:30:00Z,30.4367,-88.0117,14.2,5.3,342.0,99.0,'11111222,11111222,11144222' 
DISL,ioos:station:DISL:MBLA:1,2019-01-02T03:50:00Z,30.4367,-88.0117,14.2,6.0,340.0,-9999.0,'1111122,1111122,1111122' 
DISL,ioos:station:DISL:MBLA:1,2019-01-02T04:00:00Z,30.4367,-88.0117,14.2,6.4,333.0,99.0,'11111222,11111222,11144222' 
DISL,ioos:station:DISL:MBLA:1,2019-01-02T04:30:00Z,30.4367,-88.0117,14.2,8.5,328.0,99.0,'11111222,11111222,11144222' 
DISL,ioos:station:DISL:MBLA:1,2019-01-02T04:50:00Z,30.4367,-88.0117,14.2,8.67,318.7,-9999.0,'1111122,1111122,1111122' 
DISL,ioos:station:DISL:MBLA:1,2019-01-02T05:00:00Z,30.4367,-88.0117,14.2,8.8,319.0,99.0,'11111222,11111222,11144222' 
DISL,ioos:station:DISL:MBLA:1,2019-01-02T05:30:00Z,30.4367,-88.0117,14.2,7.4,334.0,99.0,'11111222,11111222,11144222' 
DISL,ioos:station:DISL:MBLA:1,2019-01-02T05:50:00Z,30.4367,-88.0117,14.2,7.44,323.2,-9999.0,'1111122,1111122,1111122' 
DISL,ioos:station:DISL:MBLA:1,2019-01-02T06:00:00Z,30.4367,-88.0117,14.2,7.2,323.0,99.0,'11111222,11111222,11144222' 
DISL,ioos:station:DISL:MBLA:1,2019-01-02T06:30:00Z,30.4367,-88.0117,14.2,5.7,321.0,99.0,'11111222,11111222,11144222' 
DISL,ioos:station:DISL:MBLA:1,2019-01-02T06:50:00Z,30.4367,-88.0117,14.2,6.36,333.7,-9999.0,'1111122,1111122,1111122' 
DISL,ioos:station:DISL:MBLA:1,2019-01-02T07:00:00Z,30.4367,-88.0117,14.2,6.0,337.0,99.0,'11111222,11111222,11144222' 
DISL,ioos:station:DISL:MBLA:1,2019-01-02T07:30:00Z,30.4367,-88.0117,14.2,6.0,325.0,99.0,'11111222,11111222,11144222' 
DISL,ioos:station:DISL:MBLA:1,2019-01-02T07:50:00Z,30.4367,-88.0117,14.2,5.96,321.9,-9999.0,'1111122,1111122,1111122' 
DISL,ioos:station:DISL:MBLA:1,2019-01-02T08:00:00Z,30.4367,-88.0117,14.2,6.2,330.0,99.0,'11111222,11111222,11144222' 
DISL,ioos:station:DISL:MBLA:1,2019-01-02T08:30:00Z,30.4367,-88.0117,14.2,5.6,334.0,99.0,'11111222,11111222,11144222' 
DISL,ioos:station:DISL:MBLA:1,2019-01-02T08:50:00Z,30.4367,-88.0117,14.2,6.72,335.3,-9999.0,'1111122,1111122,1111122' 
DISL,ioos:station:DISL:MBLA:1,2019-01-02T09:00:00Z,30.4367,-88.0117,14.2,7.1,333.0,99.0,'11111222,11111222,11144222' 
DISL,ioos:station:DISL:MBLA:1,2019-01-02T09:30:00Z,30.4367,-88.0117,14.2,7.4,327.0,99.0,'11111222,11111222,11144222' 
DISL,ioos:station:DISL:MBLA:1,2019-01-02T09:50:00Z,30.4367,-88.0117,14.2,6.83,323.3,-9999.0,'1111122,1111122,1111122' 
DISL,ioos:station:DISL:MBLA:1,2019-01-02T10:00:00Z,30.4367,-88.0117,14.2,6.7,326.0,99.0,'11111222,11111222,11144222' 
DISL,ioos:station:DISL:MBLA:1,2019-01-02T10:30:00Z,30.4367,-88.0117,14.2,6.3,328.0,99.0,'11111222,11111222,11144222' 
DISL,ioos:station:DISL:MBLA:1,2019-01-02T10:50:00Z,30.4367,-88.0117,14.2,6.97,317.6,-9999.0,'1111122,1111122,1111122' 
DISL,ioos:station:DISL:MBLA:1,2019-01-02T11:00:00Z,30.4367,-88.0117,14.2,7.4,322.0,99.0,'11111222,11111222,11144222' 
DISL,ioos:station:DISL:MBLA:1,2019-01-02T11:30:00Z,30.4367,-88.0117,14.2,6.6,334.0,99.0,'11111222,11111222,11144222' 
DISL,ioos:station:DISL:MBLA:1,2019-01-02T11:50:00Z,30.4367,-88.0117,14.2,5.64,345.1,-9999.0,'1111122,1111122,1111122' 
DISL,ioos:station:DISL:MBLA:1,2019-01-02T12:50:00Z,30.4367,-88.0117,14.2,4.05,337.1,-9999.0,'1111122,1111122,1111122' 
DISL,ioos:station:DISL:MBLA:1,2019-01-02T13:50:00Z,30.4367,-88.0117,14.2,4.24,319.1,-9999.0,'1111122,1111122,1111122' 
DISL,ioos:station:DISL:MBLA:1,2019-01-02T14:50:00Z,30.4367,-88.0117,14.2,4.09,332.0,-9999.0,'1111122,1111122,1111122' 
DISL,ioos:station:DISL:MBLA:1,2019-01-02T15:50:00Z,30.4367,-88.0117,14.2,4.96,318.1,-9999.0,'1111122,1111122,1111122' 
DISL,ioos:station:DISL:MBLA:1,2019-01-02T16:50:00Z,30.4367,-88.0117,14.2,5.18,337.1,-9999.0,'1111122,1111122,1111122' 
DISL,ioos:station:DISL:MBLA:1,2019-01-02T17:50:00Z,30.4367,-88.0117,14.2,4.85,320.4,-9999.0,'1111122,1111122,1111122' 
DISL,ioos:station:DISL:MBLA:1,2019-01-02T18:50:00Z,30.4367,-88.0117,14.2,4.35,339.6,-9999.0,'1111122,1111122,1111122' 
DISL,ioos:station:DISL:MBLA:1,2019-01-02T19:50:00Z,30.4367,-88.0117,14.2,3.83,331.4,-9999.0,'1111122,1111122,1111122' 
DISL,ioos:station:DISL:MBLA:1,2019-01-02T20:00:00Z,30.4367,-88.0117,14.2,3.7,328.0,99.0,'11111222,11111222,11144222' 
DISL,ioos:station:DISL:MBLA:1,2019-01-02T20:30:00Z,30.4367,-88.0117,14.2,2.6,3.0,99.0,'11111222,11111222,11144222' 
DISL,ioos:station:DISL:MBLA:1,2019-01-02T20:50:00Z,30.4367,-88.0117,14.2,2.69,338.4,-9999.0,'1111122,1111122,1111122' 
DISL,ioos:station:DISL:MBLA:1,2019-01-02T21:00:00Z,30.4367,-88.0117,14.2,3.2,324.0,99.0,'11111222,11111222,11144222' 
DISL,ioos:station:DISL:MBLA:1,2019-01-02T21:30:00Z,30.4367,-88.0117,14.2,3.4,341.0,99.0,'11111222,11111222,11144222' 
DISL,ioos:station:DISL:MBLA:1,2019-01-02T21:50:00Z,30.4367,-88.0117,14.2,3.93,335.7,-9999.0,'1111122,1111122,1111122' 
DISL,ioos:station:DISL:MBLA:1,2019-01-02T22:00:00Z,30.4367,-88.0117,14.2,3.7,340.0,99.0,'11111222,11111222,11144222' 
DISL,ioos:station:DISL:MBLA:1,2019-01-02T22:30:00Z,30.4367,-88.0117,14.2,3.8,342.0,99.0,'11111222,11111222,11144222' 
DISL,ioos:station:DISL:MBLA:1,2019-01-02T22:50:00Z,30.4367,-88.0117,14.2,3.67,335.4,-9999.0,'1111122,1111122,1111122' 
DISL,ioos:station:DISL:MBLA:1,2019-01-02T23:00:00Z,30.4367,-88.0117,14.2,3.6,337.0,99.0,'11111222,11111222,11144222' 
DISL,ioos:station:DISL:MBLA:1,2019-01-02T23:30:00Z,30.4367,-88.0117,14.2,2.3,38.0,99.0,'11111222,11111222,11144222' 
DISL,ioos:station:DISL:MBLA:1,2019-01-02T23:50:00Z,30.4367,-88.0117,14.2,1.22,37.48,-9999.0,'1111122,1111122,1111122' 
DISL,ioos:station:DISL:MBLA:1,2019-01-03T00:00:00Z,30.4367,-88.0117,14.2,0.9,37.0,99.0,'11111222,11111222,11144222' 
DISL,ioos:station:DISL:MBLA:1,2019-01-03T00:30:00Z,30.4367,-88.0117,14.2,1.1,21.0,99.0,'11111222,11111222,11144222' 
DISL,ioos:station:DISL:MBLA:1,2019-01-03T00:50:00Z,30.4367,-88.0117,14.2,0.91,41.04,-9999.0,'1111122,1111122,1111122' 
DISL,ioos:station:DISL:MBLA:1,2019-01-03T01:00:00Z,30.4367,-88.0117,14.2,1.2,54.0,99.0,'11111222,11111222,11144222' 
DISL,ioos:station:DISL:MBLA:1,2019-01-03T01:30:00Z,30.4367,-88.0117,14.2,2.3,59.0,99.0,'11111222,11111222,11144222' 
DISL,ioos:station:DISL:MBLA:1,2019-01-03T01:50:00Z,30.4367,-88.0117,14.2,2.43,75.17,-9999.0,'1111122,1111122,1111122' 
DISL,ioos:station:DISL:MBLA:1,2019-01-03T02:00:00Z,30.4367,-88.0117,14.2,3.0,87.0,99.0,'11111222,11111222,11144222' 
DISL,ioos:station:DISL:MBLA:1,2019-01-03T02:30:00Z,30.4367,-88.0117,14.2,4.2,94.0,99.0,'11111222,11111222,11144222' 
DISL,ioos:station:DISL:MBLA:1,2019-01-03T02:50:00Z,30.4367,-88.0117,14.2,5.36,97.9,-9999.0,'1111122,1111122,1111122' 
DISL,ioos:station:DISL:MBLA:1,2019-01-03T03:00:00Z,30.4367,-88.0117,14.2,5.5,93.0,99.0,'11111222,11111222,11144222' 
DISL,ioos:station:DISL:MBLA:1,2019-01-03T03:30:00Z,30.4367,-88.0117,14.2,5.1,90.0,99.0,'11111222,11111222,11144222' 
DISL,ioos:station:DISL:MBLA:1,2019-01-03T03:50:00Z,30.4367,-88.0117,14.2,5.12,90.6,-9999.0,'1111122,1111122,1111122' 
DISL,ioos:station:DISL:MBLA:1,2019-01-03T04:00:00Z,30.4367,-88.0117,14.2,5.0,89.0,99.0,'11111222,11111222,11144222' 
DISL,ioos:station:DISL:MBLA:1,2019-01-03T04:30:00Z,30.4367,-88.0117,14.2,4.6,93.0,99.0,'11111222,11111222,11144222' 
DISL,ioos:station:DISL:MBLA:1,2019-01-03T04:50:00Z,30.4367,-88.0117,14.2,4.45,89.5,-9999.0,'1111122,1111122,1111122' 
DISL,ioos:station:DISL:MBLA:1,2019-01-03T05:00:00Z,30.4367,-88.0117,14.2,3.8,85.0,99.0,'11111222,11111222,11144222' 
DISL,ioos:station:DISL:MBLA:1,2019-01-03T05:30:00Z,30.4367,-88.0117,14.2,4.4,91.0,99.0,'11111222,11111222,11144222' 
DISL,ioos:station:DISL:MBLA:1,2019-01-03T05:50:00Z,30.4367,-88.0117,14.2,3.52,86.9,-9999.0,'1111122,1111122,1111122' 
DISL,ioos:station:DISL:MBLA:1,2019-01-03T06:00:00Z,30.4367,-88.0117,14.2,3.8,86.0,99.0,'11111222,11111222,11144222' 
DISL,ioos:station:DISL:MBLA:1,2019-01-03T06:30:00Z,30.4367,-88.0117,14.2,4.0,92.0,99.0,'11111222,11111222,11144222' 
DISL,ioos:station:DISL:MBLA:1,2019-01-03T06:50:00Z,30.4367,-88.0117,14.2,3.61,88.9,-9999.0,'1111122,1111122,1111122' 
DISL,ioos:station:DISL:MBLA:1,2019-01-03T07:00:00Z,30.4367,-88.0117,14.2,2.5,87.0,99.0,'11111222,11111222,11144222' 
DISL,ioos:station:DISL:MBLA:1,2019-01-03T07:30:00Z,30.4367,-88.0117,14.2,1.5,82.0,99.0,'11111222,11111222,11144222' 
DISL,ioos:station:DISL:MBLA:1,2019-01-03T07:50:00Z,30.4367,-88.0117,14.2,1.49,84.9,-9999.0,'1111122,1111122,1111122' 
DISL,ioos:station:DISL:MBLA:1,2019-01-03T08:00:00Z,30.4367,-88.0117,14.2,2.8,354.0,99.0,'11111222,11111222,11144222' 
DISL,ioos:station:DISL:MBLA:1,2019-01-03T08:30:00Z,30.4367,-88.0117,14.2,0.5,52.0,99.0,'11111222,11111222,11144222' 
DISL,ioos:station:DISL:MBLA:1,2019-01-03T08:50:00Z,30.4367,-88.0117,14.2,5.39,359.2,-9999.0,'1111122,1111122,1111122' 
DISL,ioos:station:DISL:MBLA:1,2019-01-03T09:00:00Z,30.4367,-88.0117,14.2,5.1,343.0,99.0,'11111222,11111222,11144222' 
DISL,ioos:station:DISL:MBLA:1,2019-01-03T09:30:00Z,30.4367,-88.0117,14.2,4.4,3.0,99.0,'11111222,11111222,11144222' 
DISL,ioos:station:DISL:MBLA:1,2019-01-03T09:50:00Z,30.4367,-88.0117,14.2,3.98,356.4,-9999.0,'1111122,1111122,1111122' 
DISL,ioos:station:DISL:MBLA:1,2019-01-03T10:00:00Z,30.4367,-88.0117,14.2,3.9,1.0,99.0,'11111222,11111222,11144222' 
DISL,ioos:station:DISL:MBLA:1,2019-01-03T10:30:00Z,30.4367,-88.0117,14.2,7.4,344.0,99.0,'11111222,11111222,11144222' 
DISL,ioos:station:DISL:MBLA:1,2019-01-03T10:50:00Z,30.4367,-88.0117,14.2,6.73,343.2,-9999.0,'1111122,1111122,1111122' 
DISL,ioos:station:DISL:MBLA:1,2019-01-03T11:00:00Z,30.4367,-88.0117,14.2,7.1,339.0,99.0,'11111222,11111222,11144222' 
DISL,ioos:station:DISL:MBLA:1,2019-01-03T11:30:00Z,30.4367,-88.0117,14.2,8.8,315.0,99.0,'11111222,11111222,11144222' 
DISL,ioos:station:DISL:MBLA:1,2019-01-03T11:50:00Z,30.4367,-88.0117,14.2,8.81,312.9,-9999.0,'1111122,1111122,1111122' 
DISL,ioos:station:DISL:MBLA:1,2019-01-03T12:00:00Z,30.4367,-88.0117,14.2,8.7,315.0,99.0,'11111222,11111222,11144222' 
DISL,ioos:station:DISL:MBLA:1,2019-01-03T12:30:00Z,30.4367,-88.0117,14.2,8.1,318.0,99.0,'11111222,11111222,11144222' 
DISL,ioos:station:DISL:MBLA:1,2019-01-03T12:50:00Z,30.4367,-88.0117,14.2,9.21,321.4,-9999.0,'1111122,1111122,1111122' 
DISL,ioos:station:DISL:MBLA:1,2019-01-03T13:00:00Z,30.4367,-88.0117,14.2,9.9,319.0,99.0,'11111222,11111222,11144222' 
DISL,ioos:station:DISL:MBLA:1,2019-01-03T13:30:00Z,30.4367,-88.0117,14.2,10.3,323.0,99.0,'11111222,11111222,11144222' 
DISL,ioos:station:DISL:MBLA:1,2019-01-03T13:50:00Z,30.4367,-88.0117,14.2,9.24,322.8,-9999.0,'1111122,1111122,1111122' 
DISL,ioos:station:DISL:MBLA:1,2019-01-03T14:00:00Z,30.4367,-88.0117,14.2,8.6,320.0,99.0,'11111222,11111222,11144222' 
DISL,ioos:station:DISL:MBLA:1,2019-01-03T14:30:00Z,30.4367,-88.0117,14.2,7.2,355.0,99.0,'11111222,11111222,11144222' 
DISL,ioos:station:DISL:MBLA:1,2019-01-03T14:50:00Z,30.4367,-88.0117,14.2,6.27,356.3,-9999.0,'1111122,1111122,1111122' 
DISL,ioos:station:DISL:MBLA:1,2019-01-03T15:00:00Z,30.4367,-88.0117,14.2,5.0,356.0,99.0,'11111222,11111222,11144222' 
DISL,ioos:station:DISL:MBLA:1,2019-01-03T15:30:00Z,30.4367,-88.0117,14.2,3.2,26.0,99.0,'11111222,11111222,11144222' 
DISL,ioos:station:DISL:MBLA:1,2019-01-03T15:50:00Z,30.4367,-88.0117,14.2,4.01,41.11,-9999.0,'1111122,1111122,1111122' 
DISL,ioos:station:DISL:MBLA:1,2019-01-03T16:00:00Z,30.4367,-88.0117,14.2,3.4,53.0,99.0,'11111222,11111222,11144222' 
DISL,ioos:station:DISL:MBLA:1,2019-01-03T16:30:00Z,30.4367,-88.0117,14.2,4.6,84.0,99.0,'11111222,11111222,11144222' 
DISL,ioos:station:DISL:MBLA:1,2019-01-03T16:50:00Z,30.4367,-88.0117,14.2,4.87,95.6,-9999.0,'1111122,1111122,1111122' 
DISL,ioos:station:DISL:MBLA:1,2019-01-03T17:00:00Z,30.4367,-88.0117,14.2,3.5,98.0,99.0,'11111222,11111222,11144222' 
DISL,ioos:station:DISL:MBLA:1,2019-01-03T17:30:00Z,30.4367,-88.0117,14.2,4.1,87.0,99.0,'11111222,11111222,11144222' 
DISL,ioos:station:DISL:MBLA:1,2019-01-03T17:50:00Z,30.4367,-88.0117,14.2,7.5,108.0,-9999.0,'1111122,1111122,1111122' 
DISL,ioos:station:DISL:MBLA:1,2019-01-03T18:00:00Z,30.4367,-88.0117,14.2,8.0,106.0,99.0,'11111222,11111222,11144222' 
DISL,ioos:station:DISL:MBLA:1,2019-01-03T18:30:00Z,30.4367,-88.0117,14.2,6.0,73.0,99.0,'11111222,11111222,11144222' 
DISL,ioos:station:DISL:MBLA:1,2019-01-03T18:50:00Z,30.4367,-88.0117,14.2,4.15,42.41,-9999.0,'1111122,1111122,1111122' 
DISL,ioos:station:DISL:MBLA:1,2019-01-03T19:00:00Z,30.4367,-88.0117,14.2,4.1,34.0,99.0,'11111222,11111222,11144222' 
DISL,ioos:station:DISL:MBLA:1,2019-01-03T19:30:00Z,30.4367,-88.0117,14.2,4.3,330.0,99.0,'11111222,11111222,11144222' 
DISL,ioos:station:DISL:MBLA:1,2019-01-03T19:50:00Z,30.4367,-88.0117,14.2,5.75,328.1,-9999.0,'1111122,1111122,1111122' 
DISL,ioos:station:DISL:MBLA:1,2019-01-03T20:00:00Z,30.4367,-88.0117,14.2,5.1,324.0,99.0,'11111222,11111222,11144222' 
DISL,ioos:station:DISL:MBLA:1,2019-01-03T20:30:00Z,30.4367,-88.0117,14.2,4.3,322.0,99.0,'11111222,11111222,11144222' 
DISL,ioos:station:DISL:MBLA:1,2019-01-03T20:50:00Z,30.4367,-88.0117,14.2,3.15,336.3,-9999.0,'1111122,1111122,1111122' 
DISL,ioos:station:DISL:MBLA:1,2019-01-03T21:00:00Z,30.4367,-88.0117,14.2,3.1,352.0,99.0,'11111222,11111222,11144222' 
DISL,ioos:station:DISL:MBLA:1,2019-01-03T21:30:00Z,30.4367,-88.0117,14.2,3.8,4.0,99.0,'11111222,11111222,11144222' 
DISL,ioos:station:DISL:MBLA:1,2019-01-03T21:50:00Z,30.4367,-88.0117,14.2,4.11,330.5,-9999.0,'1111122,1111122,1111122' 
DISL,ioos:station:DISL:MBLA:1,2019-01-03T22:00:00Z,30.4367,-88.0117,14.2,4.4,326.0,99.0,'11111222,11111222,11144222' 
DISL,ioos:station:DISL:MBLA:1,2019-01-03T22:30:00Z,30.4367,-88.0117,14.2,6.5,330.0,99.0,'11111222,11111222,11144222' 
DISL,ioos:station:DISL:MBLA:1,2019-01-03T22:50:00Z,30.4367,-88.0117,14.2,5.44,348.0,-9999.0,'1111122,1111122,1111122' 
DISL,ioos:station:DISL:MBLA:1,2019-01-03T23:00:00Z,30.4367,-88.0117,14.2,5.2,351.0,99.0,'11111222,11111222,11144222' 
DISL,ioos:station:DISL:MBLA:1,2019-01-03T23:30:00Z,30.4367,-88.0117,14.2,5.8,346.0,99.0,'11111222,11111222,11144222' 
DISL,ioos:station:DISL:MBLA:1,2019-01-03T23:50:00Z,30.4367,-88.0117,14.2,5.23,339.3,-9999.0,'1111122,1111122,1111122' 
DISL,ioos:station:DISL:MBLA:1,2019-01-04T00:00:00Z,30.4367,-88.0117,14.2,5.2,343.0,99.0,'11111222,11111222,11144222' 
DISL,ioos:station:DISL:MBLA:1,2019-01-04T00:30:00Z,30.4367,-88.0117,14.2,4.4,353.0,99.0,'11111222,11111222,11144222' 
DISL,ioos:station:DISL:MBLA:1,2019-01-04T00:50:00Z,30.4367,-88.0117,14.2,4.11,16.09,-9999.0,'1111122,1111122,1111122' 
DISL,ioos:station:DISL:MBLA:1,2019-01-04T01:00:00Z,30.4367,-88.0117,14.2,3.8,29.0,99.0,'11111222,11111222,11144222' 
DISL,ioos:station:DISL:MBLA:1,2019-01-04T01:30:00Z,30.4367,-88.0117,14.2,5.2,73.0,99.0,'11111222,11111222,11144222' 
DISL,ioos:station:DISL:MBLA:1,2019-01-04T01:50:00Z,30.4367,-88.0117,14.2,6.09,78.83,-9999.0,'1111122,1111122,1111122' 
DISL,ioos:station:DISL:MBLA:1,2019-01-04T02:00:00Z,30.4367,-88.0117,14.2,6.5,80.0,99.0,'11111222,11111222,11144222' 
DISL,ioos:station:DISL:MBLA:1,2019-01-04T02:30:00Z,30.4367,-88.0117,14.2,7.8,87.0,99.0,'11111222,11111222,11144222' 
DISL,ioos:station:DISL:MBLA:1,2019-01-04T02:50:00Z,30.4367,-88.0117,14.2,7.09,99.3,-9999.0,'1111122,1111122,1111122' 
DISL,ioos:station:DISL:MBLA:1,2019-01-04T03:00:00Z,30.4367,-88.0117,14.2,9.3,97.0,99.0,'11111222,11111222,11144222' 